FW3800 Weather Reports


Display with metric or nautical units.
time (UTC)temp
F
wind
direction
speed
MPH
gust
MPH
rain 1hr
in
rain 24hr
in
rain mn
in
humidity
%
barometer
mb
20210621142035 79 268 3.0 9.0 0.00 0.27 0.00 89 1012.0
20210621141611 79 258 2.0 8.0 0.00 0.27 0.00 90 1012.0
20210621141024 78 190 4.0 8.0 0.00 0.27 0.00 89 1012.1
20210621140523 78 256 1.0 6.0 0.00 0.27 0.00 91 1012.1
20210621140122 78 190 1.0 11.0 0.00 0.35 0.00 91 1012.1
20210621135550 77 250 4.0 11.0 0.00 0.35 0.00 90 1011.9
20210621135022 77 198 3.0 7.0 0.00 0.35 0.00 91 1011.9
20210621134547 77 200 3.0 8.0 0.00 0.35 0.00 92 1011.8
20210621134030 76 182 3.0 7.0 0.00 0.35 0.00 93 1011.8
20210621133519 76 184 2.0 10.0 0.00 0.35 0.00 93 1011.7
20210621133021 75 165 4.0 10.0 0.00 0.35 0.00 94 1011.8
20210621132513 75 211 1.0 7.0 0.00 0.35 0.00 95 1011.8
20210621132011 74 168 0.0 7.0 0.00 0.35 0.00 95 1011.7
20210621131541 74 173 2.0 6.0 0.00 0.35 0.00 95 1011.7
20210621131009 74 195 3.0 7.0 0.00 0.35 0.00 96 1011.6
20210621130512 74 198 1.0 5.0 0.00 0.35 0.00 97 1011.6
20210621130015 73 198 1.0 4.0 0.00 0.40 0.00 97 1011.5
20210621125507 73 227 0.0 6.0 0.00 0.40 0.00 98 1011.5
20210621125004 73 218 2.0 6.0 0.00 0.40 0.00 97 1011.4
20210621124507 73 150 2.0 6.0 0.00 0.40 0.00 97 1011.4
20210621124003 73 192 1.0 5.0 0.00 0.40 0.00 98 1011.4
20210621123559 72 205 2.0 5.0 0.00 0.40 0.00 98 1011.3
20210621123132 72 234 0.0 4.0 0.00 0.40 0.00 98 1011.3
20210621122612 72 193 0.0 4.0 0.00 0.40 0.00 98 1011.2
20210621122055 72 219 1.0 6.0 0.00 0.40 0.00 99 1011.0
20210621121624 72 250 2.0 6.0 0.00 0.40 0.00 99 1011.0
20210621121055 72 206 0.0 6.0 0.00 0.40 0.00 99 1011.0
20210621120551 71 208 2.0 6.0 0.00 0.40 0.00 99 1011.0
20210621120123 71 259 0.0 3.0 0.00 0.40 0.00 99 1011.1
20210621115553 71 235 0.0 7.0 0.00 0.88 0.00 99 1011.0
20210621115054 71 205 1.0 4.0 0.00 0.88 0.00 99 1011.0
20210621114700 71 186 1.0 4.0 0.00 0.88 0.00 99 1011.1
20210621114110 71 263 0.0 4.0 0.00 0.88 0.00 99 1011.0
20210621113542 71 264 0.0 5.0 0.00 0.88 0.00 99 1011.0
20210621113108 71 217 1.0 5.0 0.00 0.88 0.00 99 1010.8
20210621112541 70 217 0.0 3.0 0.00 0.88 0.00 99 1010.8
20210621112123 70 225 1.0 3.0 0.00 0.88 0.00 99 1010.8
20210621111542 70 211 1.0 3.0 0.00 0.88 0.00 99 1010.8
20210621111037 70 223 1.0 4.0 0.00 0.88 0.00 99 1010.7
20210621110535 70 186 1.0 4.0 0.00 0.88 0.00 99 1010.6
20210621110040 70 183 0.0 3.0 0.00 0.88 0.00 99 1010.6
20210621105534 70 236 1.0 4.0 0.00 0.95 0.00 99 1010.6
20210621104616 70 192 1.0 4.0 0.00 0.95 0.00 99 1010.4
20210621104031 70 200 0.0 3.0 0.00 0.95 0.00 99 1010.4
20210621103531 70 200 0.0 3.0 0.00 0.95 0.00 99 1010.3
20210621103054 70 232 0.0 3.0 0.00 0.95 0.00 99 1010.3
20210621102537 70 190 1.0 3.0 0.00 0.95 0.00 99 1010.3
20210621102028 70 191 1.0 4.0 0.00 0.95 0.00 99 1010.1
20210621101541 70 214 1.0 4.0 0.00 0.95 0.00 99 1010.0
20210621101026 70 193 1.0 3.0 0.00 0.95 0.00 99 1009.9
20210621100526 70 233 0.0 3.0 0.00 0.95 0.00 99 1009.8
20210621100039 70 185 0.0 2.0 0.00 0.96 0.00 99 1009.7
20210621095525 70 188 0.0 3.0 0.00 0.96 0.00 99 1009.7
20210621095033 70 191 2.0 3.0 0.00 0.96 0.00 99 1009.5
20210621094530 70 219 1.0 4.0 0.00 0.96 0.00 99 1009.1
20210621094025 70 217 1.0 4.0 0.00 0.96 0.00 99 1009.1
20210621093524 70 206 1.0 3.0 0.00 0.96 0.00 99 1009.0
20210621093042 70 259 0.0 2.0 0.00 0.96 0.00 99 1008.9
20210621092532 70 206 1.0 3.0 0.00 0.96 0.00 98 1008.7
20210621092023 70 224 0.0 3.0 0.00 0.96 0.00 98 1008.6
20210621091539 70 224 0.0 2.0 0.00 0.96 0.00 98 1008.5
20210621091024 70 224 1.0 2.0 0.00 0.96 0.00 98 1008.6
20210621090532 70 229 0.0 2.0 0.00 0.96 0.00 99 1008.6
20210621090030 70 211 0.0 2.0 0.00 0.96 0.00 99 1008.7
20210621085539 70 210 0.0 5.0 0.00 0.96 0.00 99 1008.7
20210621085026 70 210 0.0 5.0 0.00 0.96 0.00 99 1008.7
20210621084534 70 218 0.0 3.0 0.00 0.96 0.00 98 1008.6
20210621084021 70 217 0.0 3.0 0.00 0.96 0.00 98 1008.6
20210621083528 70 235 0.0 3.0 0.00 0.96 0.00 98 1008.6
20210621083052 71 185 0.0 3.0 0.00 0.96 0.00 98 1008.5
20210621082529 71 215 0.0 1.0 0.00 0.96 0.00 98 1008.4
20210621082017 71 215 0.0 2.0 0.00 0.96 0.00 99 1008.2
20210621081528 71 215 0.0 3.0 0.00 0.96 0.00 99 1008.4
20210621081035 71 203 1.0 3.0 0.00 0.96 0.00 99 1008.5
20210621080531 71 223 0.0 5.0 0.00 0.96 0.00 99 1008.4
20210621080036 71 208 0.0 5.0 0.00 0.96 0.00 99 1008.4
20210621075510 71 195 0.0 2.0 0.00 0.96 0.00 99 1008.4
20210621075009 71 197 0.0 2.0 0.00 0.96 0.00 99 1008.6
20210621074514 71 201 0.0 1.0 0.00 0.96 0.00 99 1008.5
20210621074015 71 201 0.0 1.0 0.00 0.96 0.00 99 1008.6
20210621073508 71 201 0.0 1.0 0.00 0.96 0.00 99 1008.6
20210621073011 71 201 0.0 1.0 0.00 0.96 0.00 99 1008.5
20210621072501 71 201 0.0 1.0 0.00 0.96 0.00 99 1008.5
20210621072108 71 201 0.0 1.0 0.00 0.96 0.00 99 1008.5
20210621071633 71 201 0.0 1.0 0.00 0.96 0.00 99 1008.5
20210621071100 71 201 0.0 1.0 0.00 0.96 0.00 99 1008.4
20210621070559 71 201 0.0 1.0 0.00 0.96 0.00 99 1008.4
20210621070147 71 201 0.0 1.0 0.00 0.96 0.00 99 1008.4
20210621065553 71 201 0.0 1.0 0.00 0.96 0.00 98 1008.3
20210621065052 71 201 0.0 1.0 0.00 0.96 0.00 99 1008.3
20210621064612 71 201 0.0 1.0 0.00 0.96 0.00 99 1008.3
20210621064133 71 201 0.0 1.0 0.00 0.96 0.00 99 1008.3
20210621063553 71 201 0.0 0.0 0.00 0.96 0.00 99 1008.2
20210621063130 71 201 0.0 0.0 0.00 0.96 0.00 99 1008.3
20210621062545 71 201 0.0 1.0 0.00 0.96 0.00 98 1008.3
20210621062053 71 201 0.0 3.0 0.00 0.96 0.00 98 1008.5
20210621061636 71 201 1.0 3.0 0.00 0.96 0.00 98 1008.6
20210621061044 71 275 0.0 1.0 0.00 0.96 0.00 99 1008.7
20210621060545 71 275 0.0 2.0 0.00 0.96 0.00 98 1008.6
20210621060136 71 275 0.0 2.0 0.00 0.96 0.00 98 1008.5
20210621055544 71 275 0.0 2.0 0.00 0.96 0.00 98 1008.5
20210621055050 71 277 0.0 2.0 0.00 0.96 0.00 98 1008.3
20210621054628 71 277 0.0 1.0 0.00 0.96 0.00 98 1008.2
20210621054042 71 277 0.0 2.0 0.00 0.96 0.00 98 1008.3
20210621053542 71 276 0.0 3.0 0.00 0.96 0.00 98 1008.3
20210621053122 71 303 0.0 3.0 0.00 0.96 0.00 98 1008.3
20210621052544 71 281 0.0 2.0 0.00 0.96 0.00 98 1008.3
20210621052041 71 281 0.0 2.0 0.00 0.96 0.00 98 1008.2
20210621051603 71 280 0.0 1.0 0.00 0.96 0.00 98 1008.2
20210621051038 71 280 0.0 1.0 0.00 0.96 0.00 98 1008.3
20210621050537 71 280 0.0 1.0 0.00 0.96 0.00 98 1008.3
20210621050138 71 280 0.0 0.0 0.00 0.96 0.00 98 1008.5
20210621045547 71 280 0.0 0.0 0.00 0.96 0.00 98 1008.4
20210621045037 71 280 0.0 0.0 0.00 0.96 0.00 98 1008.3
20210621044558 71 280 0.0 0.0 0.00 0.96 0.00 98 1008.4
20210621044031 71 280 0.0 1.0 0.00 0.96 0.00 98 1008.7
20210621043536 71 281 0.0 0.0 0.00 0.96 0.00 98 1008.7
20210621043056 71 281 0.0 0.0 0.00 0.96 0.00 98 1008.9
20210621042526 71 281 0.0 0.0 0.00 0.96 0.00 98 1009.0
20210621042036 71 281 0.0 0.0 0.00 0.96 0.00 98 1009.3
20210621041549 71 281 0.0 0.0 0.00 0.96 0.00 98 1009.3
20210621041024 71 281 0.0 0.0 0.00 0.96 0.00 98 1009.3
20210621040547 71 281 0.0 0.0 0.00 0.96 0.00 98 1009.4
20210621040027 71 281 0.0 0.0 0.00 0.96 0.96 98 1009.2
20210621035537 71 281 0.0 0.0 0.00 0.96 0.96 98 1009.3
20210621035035 71 281 0.0 0.0 0.00 0.96 0.96 98 1009.4
20210621034536 71 281 0.0 0.0 0.00 0.96 0.96 98 1009.5
20210621034016 71 281 0.0 0.0 0.00 0.96 0.96 98 1009.7
20210621033518 71 281 0.0 0.0 0.00 0.96 0.96 98 1009.7
20210621033023 71 281 0.0 0.0 0.00 0.96 0.96 98 1009.7
20210621032534 71 281 0.0 0.0 0.00 0.96 0.96 98 1009.8
20210621032015 71 281 0.0 0.0 0.01 0.96 0.96 98 1009.7
20210621031551 71 281 0.0 0.0 0.02 0.96 0.96 98 1009.7
20210621031019 71 281 0.0 0.0 0.04 0.96 0.96 98 1009.7
20210621030515 71 281 0.0 0.0 0.05 0.96 0.96 98 1009.8
20210621030017 71 281 0.0 0.0 0.05 0.96 0.96 98 1009.8
20210621025514 72 281 0.0 0.0 0.05 0.96 0.96 98 1009.9
20210621025014 72 281 0.0 0.0 0.05 0.96 0.96 98 1009.7
20210621024536 71 281 0.0 0.0 0.05 0.96 0.96 98 1009.8
20210621024013 72 281 0.0 0.0 0.05 0.96 0.96 98 1009.9
20210621023521 72 281 0.0 0.0 0.05 0.96 0.96 98 1009.9
20210621023018 71 281 0.0 0.0 0.05 0.96 0.96 98 1010.0
20210621022513 71 281 0.0 0.0 0.05 0.96 0.96 98 1010.1
20210621022018 72 281 0.0 0.0 0.04 0.95 0.95 98 1010.1
20210621021531 71 281 0.0 0.0 0.02 0.93 0.93 98 1010.1
20210621021013 72 281 0.0 0.0 0.00 0.91 0.91 98 1010.0
20210621020513 72 281 0.0 0.0 0.00 0.91 0.91 98 1010.0
20210621020017 72 281 0.0 0.0 0.00 0.91 0.91 98 1010.0
20210621015513 72 281 0.0 0.0 0.00 0.91 0.91 98 1010.0
20210621015012 72 281 0.0 0.0 0.00 0.91 0.91 98 1009.9
20210621014521 71 281 0.0 0.0 0.00 0.91 0.91 98 1009.8
20210621014016 72 281 0.0 0.0 0.00 0.91 0.91 98 1009.9
20210621013514 71 281 0.0 1.0 0.01 0.91 0.91 98 1010.0
20210621013050 72 281 0.0 0.0 0.01 0.91 0.91 98 1009.8
20210621012511 72 281 0.0 0.0 0.01 0.91 0.91 98 1009.7
20210621012012 71 281 0.0 0.0 0.02 0.91 0.91 98 1009.8
20210621011526 71 281 0.0 0.0 0.02 0.91 0.91 97 1009.9
20210621011018 71 281 0.0 0.0 0.03 0.91 0.91 97 1009.9
20210621010525 71 281 0.0 0.0 0.03 0.91 0.91 97 1009.8
20210621010012 71 281 0.0 0.0 0.03 0.91 0.91 97 1009.8
20210621005510 71 281 0.0 0.0 0.03 0.91 0.91 97 1009.8
20210621005015 71 281 0.0 0.0 0.03 0.91 0.91 97 1009.8
20210621004524 71 281 0.0 0.0 0.03 0.91 0.91 97 1010.0
20210621003536 72 281 0.0 0.0 0.02 0.90 0.90 96 1010.1
20210621003030 72 281 0.0 0.0 0.02 0.90 0.90 96 1010.1
20210621002509 72 281 0.0 0.0 0.02 0.90 0.90 96 1010.0
20210621002015 72 281 0.0 0.0 0.01 0.89 0.89 96 1009.9
20210621001537 72 281 0.0 0.0 0.01 0.89 0.89 96 1009.8
20210621001015 72 281 0.0 0.0 0.00 0.88 0.88 96 1009.7
20210621000507 72 281 0.0 2.0 0.00 0.88 0.88 96 1009.8
20210621000011 72 281 0.0 5.0 0.00 0.88 0.88 95 1009.8
20210620235513 73 313 1.0 5.0 0.00 0.88 0.88 96 1009.9
20210620235010 73 355 0.0 5.0 0.00 0.88 0.88 96 1009.9
20210620234008 73 360 0.0 2.0 0.00 0.88 0.88 96 1010.2
20210620233506 73 30 0.0 1.0 0.00 0.88 0.88 97 1010.1
20210620233018 73 30 0.0 0.0 0.00 0.88 0.88 96 1010.3
20210620232515 73 30 0.0 1.0 0.00 0.88 0.88 96 1010.5
20210620232011 73 30 0.0 1.0 0.00 0.88 0.88 96 1010.3
20210620231523 73 30 0.0 0.0 0.00 0.88 0.88 96 1010.5
20210620231012 73 30 0.0 0.0 0.00 0.88 0.88 96 1010.4
20210620230510 73 30 0.0 0.0 0.00 0.88 0.88 96 1010.6
20210620230010 73 30 0.0 0.0 0.00 0.88 0.88 96 1010.5
20210620225508 74 30 0.0 1.0 0.00 0.88 0.88 95 1010.5
20210620225005 74 30 0.0 1.0 0.00 0.88 0.88 95 1010.3
20210620224508 74 30 0.0 0.0 0.00 0.88 0.88 95 1010.2
20210620224010 74 30 0.0 1.0 0.00 0.88 0.88 95 1010.2
20210620223504 74 30 0.0 2.0 0.00 0.88 0.88 95 1010.3
20210620223005 74 30 0.0 2.0 0.00 0.88 0.88 94 1010.1
20210620222510 75 222 0.0 1.0 0.00 0.88 0.88 95 1010.0
20210620222004 75 222 0.0 2.0 0.00 0.88 0.88 94 1010.1
20210620221507 75 222 0.0 2.0 0.00 0.88 0.88 95 1010.2
20210620221007 75 223 0.0 2.0 0.00 0.88 0.88 95 1010.1
20210620220507 75 223 0.0 1.0 0.00 0.88 0.88 95 1010.0
20210620220025 75 223 0.0 0.0 0.00 1.01 0.88 96 1009.8
20210620215502 75 222 0.0 0.0 0.00 1.01 0.88 96 1009.8
20210620215002 75 222 0.0 2.0 0.00 1.01 0.88 96 1010.1
20210620214502 75 222 0.0 2.0 0.00 1.01 0.88 95 1010.5
20210620214007 75 321 0.0 3.0 0.00 1.01 0.88 95 1010.6
20210620213506 75 206 1.0 3.0 0.00 1.01 0.88 95 1011.0
20210620213014 75 322 0.0 0.0 0.00 1.01 0.88 96 1010.4
20210620212608 75 322 0.0 0.0 0.00 1.01 0.88 95 1010.4
20210620212100 75 322 0.0 0.0 0.00 1.01 0.88 95 1010.4
20210620211713 75 322 0.0 0.0 0.00 1.01 0.88 95 1010.3
20210620211620 75 322 0.0 0.0 0.00 1.01 0.88 96 1010.4
20210620211059 75 322 0.0 0.0 0.00 1.01 0.88 96 1010.4
20210620210613 75 322 0.0 0.0 0.00 1.01 0.88 96 1010.4
20210620210142 75 322 0.0 0.0 0.00 1.01 0.88 96 1010.5
20210620205559 75 322 0.0 0.0 0.00 1.01 0.88 96 1010.4
20210620205104 74 322 0.0 0.0 0.00 1.01 0.88 97 1010.7
20210620204640 74 322 0.0 1.0 0.02 1.01 0.88 97 1011.0
20210620204103 74 322 0.0 2.0 0.06 1.01 0.88 97 1011.1
20210620203604 74 317 0.0 2.0 0.06 1.01 0.88 97 1011.1
20210620203111 74 206 0.0 0.0 0.06 1.01 0.88 96 1011.1
20210620202557 73 206 0.0 0.0 0.06 1.01 0.88 96 1011.0
20210620202109 73 206 0.0 1.0 0.06 1.01 0.88 96 1011.0
20210620201629 73 207 0.0 2.0 0.06 1.01 0.88 96 1010.8
20210620201057 73 206 0.0 2.0 0.07 1.01 0.88 96 1010.8
20210620200557 73 207 0.0 0.0 0.07 1.01 0.88 95 1010.9
20210620200149 73 207 0.0 0.0 0.08 1.01 0.88 95 1011.0
20210620195558 73 207 0.0 0.0 0.08 1.01 0.88 95 1011.0
20210620195110 73 207 0.0 3.0 0.07 1.00 0.87 94 1011.1
20210620194730 73 207 0.0 3.0 0.06 0.99 0.86 94 1011.3
20210620194136 73 207 0.0 4.0 0.02 0.95 0.82 93 1011.2
20210620193614 73 209 1.0 5.0 0.02 0.95 0.82 93 1011.0
20210620193309 74 195 2.0 10.0 0.02 0.95 0.82 92 1011.1
20210620192555 74 239 4.0 15.0 0.02 0.95 0.82 91 1011.2
20210620192055 75 208 4.0 15.0 0.02 0.95 0.82 90 1011.1
20210620191833 77 172 2.0 10.0 0.01 0.94 0.81 91 1011.2
20210620191054 78 209 3.0 7.0 0.01 0.94 0.81 89 1011.3
20210620190555 80 221 3.0 7.0 0.01 0.94 0.81 88 1011.3
20210620190111 81 234 1.0 6.0 0.00 0.93 0.80 88 1010.9
20210620185555 82 265 2.0 6.0 0.00 0.93 0.80 85 1010.8
20210620185055 83 167 0.0 4.0 0.00 0.93 0.80 88 1010.5
20210620184654 82 212 1.0 6.0 0.00 0.93 0.80 90 1010.6
20210620184052 82 223 2.0 6.0 0.00 0.93 0.80 89 1010.8
20210620183553 81 204 0.0 3.0 0.00 0.93 0.80 92 1010.7
20210620183220 80 204 1.0 3.0 0.00 0.93 0.80 93 1010.8
20210620182625 79 187 0.0 3.0 0.00 0.93 0.80 94 1010.8
20210620182051 79 196 0.0 3.0 0.00 0.93 0.80 94 1011.0
20210620181636 78 169 0.0 3.0 0.00 0.93 0.80 95 1011.1
20210620181051 78 184 1.0 3.0 0.00 0.93 0.80 94 1010.9
20210620180551 78 244 0.0 4.0 0.03 0.93 0.80 94 1010.9
20210620180133 78 254 0.0 4.0 0.10 0.93 0.80 93 1011.0
20210620175549 78 300 2.0 10.0 0.10 0.93 0.80 93 1011.0
20210620175048 78 237 3.0 10.0 0.10 0.93 0.80 92 1011.2
20210620174600 78 219 0.0 4.0 0.10 0.93 0.80 94 1011.3
20210620174047 78 233 1.0 5.0 0.10 0.93 0.80 93 1011.5
20210620173546 78 228 2.0 8.0 0.10 0.93 0.80 92 1011.7
20210620173222 78 247 2.0 8.0 0.10 0.93 0.80 91 1011.8
20210620172601 79 252 1.0 5.0 0.10 0.93 0.80 92 1011.9
20210620172044 79 205 0.0 4.0 0.10 0.93 0.80 93 1011.7
20210620171623 79 186 1.0 4.0 0.10 0.93 0.80 91 1011.7
20210620171105 80 186 1.0 5.0 0.10 0.93 0.80 89 1011.7
20210620170600 82 106 1.0 6.0 0.07 0.90 0.77 86 1011.4
20210620170107 82 240 2.0 6.0 0.00 0.83 0.70 82 1011.5
20210620165546 82 231 1.0 8.0 0.00 0.83 0.70 85 1011.4
20210620165041 82 188 1.0 8.0 0.00 0.83 0.70 82 1011.7
20210620164610 83 194 1.0 7.0 0.00 0.83 0.70 85 1011.9
20210620164038 83 232 1.0 7.0 0.00 0.83 0.70 85 1012.0
20210620163538 83 209 0.0 12.0 0.00 0.83 0.70 85 1012.0
20210620163051 82 172 4.0 12.0 0.00 0.83 0.70 84 1012.1
20210620162534 82 263 1.0 5.0 0.00 0.83 0.70 87 1012.0
20210620162040 82 222 1.0 6.0 0.00 0.83 0.70 87 1012.0
20210620161546 82 242 1.0 7.0 0.00 0.83 0.70 87 1012.0
20210620161033 81 215 2.0 6.0 0.00 0.83 0.70 89 1012.2
20210620160530 81 194 2.0 6.0 0.00 0.83 0.70 90 1012.2
20210620160044 80 214 2.0 6.0 0.00 0.83 0.70 90 1012.3
20210620155528 80 239 2.0 6.0 0.00 0.83 0.70 92 1012.3
20210620155025 79 49 1.0 4.0 0.00 0.83 0.70 94 1012.3
20210620154600 79 283 1.0 4.0 0.00 0.83 0.70 95 1012.4
20210620154023 78 218 1.0 5.0 0.00 0.83 0.70 96 1012.4
20210620153522 77 212 0.0 5.0 0.00 0.83 0.70 95 1012.5
20210620153022 77 238 0.0 4.0 0.00 0.83 0.70 97 1012.5
20210620152519 76 246 0.0 4.0 0.00 0.83 0.70 98 1012.4
20210620152018 75 64 1.0 5.0 0.00 0.83 0.70 97 1012.5
20210620151523 75 234 1.0 4.0 0.00 0.83 0.70 97 1012.6
20210620151016 75 219 2.0 4.0 0.00 0.83 0.70 98 1012.7
20210620150515 75 265 0.0 3.0 0.01 0.83 0.70 99 1012.7
20210620150015 75 220 1.0 3.0 0.01 0.83 0.70 100 1012.7
20210620145017 74 360 0.0 2.0 0.03 0.83 0.70 100 1012.9
20210620144511 73 10 0.0 2.0 0.06 0.83 0.70 100 1012.9
20210620144015 73 282 0.0 2.0 0.06 0.83 0.70 99 1012.8
20210620143509 72 279 0.0 1.0 0.06 0.83 0.70 99 1013.0
20210620143015 71 279 0.0 1.0 0.06 0.83 0.70 99 1013.1